Date,TemperatureHighF,TemperatureAvgF,TemperatureLowF,DewpointHighF,DewpointAvgF,DewpointLowF,HumidityHigh,HumidityAvg,HumidityLow,PressureMaxIn,PressureMinIn,WindSpeedMaxMPH,WindSpeedAvgMPH,GustSpeedMaxMPH,PrecipitationSumIn
2013-5-1,70,47,28,42,33,25,95,65,24,30.41,30.28,9,2,9,0.01
2013-5-2,76,53,34,49,40,31,95,64,34,30.38,30.19,13,2,13,0.00
2013-5-3,75,56,36,51,43,33,94,66,38,30.23,30.07,9,2,12,0.00
2013-5-4,82,60,37,54,44,35,94,62,23,30.07,29.84,18,2,18,0.00
2013-5-5,86,63,40,55,45,37,95,61,24,29.84,29.61,13,2,13,0.00
2013-5-6,93,65,41,55,45,37,95,59,17,29.70,29.59,8,1,8,0.00
2013-5-7,80,60,44,57,50,40,93,73,41,29.87,29.68,6,1,6,0.00
2013-5-8,73,56,45,55,49,42,92,79,53,29.99,29.87,4,1,4,0.00
2013-5-9,77,57,40,57,49,38,93,77,49,30.06,29.96,5,1,5,0.00
2013-5-10,85,62,42,58,51,40,95,71,38,30.05,29.95,5,1,5,0.00
2013-5-11,87,67,50,61,54,47,94,67,33,30.04,29.83,3,1,3,0.00
2013-5-12,75,63,56,62,57,53,93,82,52,29.96,29.86,6,1,6,0.30
2013-5-13,68,56,42,59,52,40,95,87,70,30.04,29.77,9,2,9,0.41
2013-5-14,71,53,39,51,42,36,94,71,31,30.07,29.96,5,1,5,0.02
2013-5-15,69,54,39,50,45,36,95,75,47,29.97,29.86,5,1,5,0.06
2013-5-16,76,62,50,55,51,48,93,71,39,29.87,29.70,7,2,7,0.00
2013-5-17,64,56,51,54,50,48,92,81,58,29.92,29.81,5,1,5,0.11
2013-5-18,65,55,49,52,49,47,92,80,61,30.11,29.92,4,1,4,0.01
2013-5-19,70,57,46,54,49,43,92,77,54,30.23,30.11,4,1,4,0.00
2013-5-20,72,59,44,54,49,41,93,73,46,30.19,29.74,3,1,3,0.00
2013-5-21,61,52,45,52,46,42,92,79,61,29.73,29.62,6,2,6,0.32
2013-5-22,53,46,41,48,44,39,93,90,82,29.78,29.71,3,1,3,0.05
2013-5-23,62,50,43,50,46,41,94,86,55,29.86,29.77,3,1,3,0.01
2013-5-24,66,53,45,52,47,43,94,83,53,29.90,29.81,4,1,4,0.00
2013-5-25,68,54,46,52,47,43,94,79,48,29.89,29.81,3,0,3,0.00
2013-5-26,66,54,45,55,49,42,93,84,62,29.84,29.78,3,0,3,0.00
2013-5-27,62,55,48,57,52,46,94,91,85,29.82,29.55,2,0,2,0.00
2013-5-28,63,55,50,55,52,48,95,88,72,29.73,29.62,3,1,3,0.00
2013-5-29,59,54,49,54,50,47,95,87,69,29.81,29.53,6,1,6,0.00
2013-5-30,63,53,46,52,48,45,94,83,61,30.09,29.83,6,1,6,0.00
2013-5-31,72,56,44,54,47,41,93,75,43,30.18,30.08,4,1,4,0.00